Wind_Speed
12 12 13 13 13 14 14 13 16 17 17 16 17 17 16 12 12 13 16 20 24 26
11 12 13 14 14 14 15 14 15 15 15 18 19 19 17 15 14 14 13 14 16 14
8 9 10 10 13 14 15 16 16 17 18 18 18 21 21 18 17 16 15 14 14 16
4 5 6 7 9 10 11 12 13 14 15 17 17 18 18 19 18 17 18 19 18 16
6 6 7 9 10 10 11 11 12 12 12 12 14 15 14 14 15 16 17 19 21 22
4 7 8 9 10 11 12 13 14 14 14 13 13 14 11 11 12 13 15 15 18 20
3 2 3 5 7 9 10 10 11 12 13 12 12 14 14 12 11 11 11 12 15 19
5 3 3 4 5 7 7 8 7 9 11 12 13 13 13 12 11 10 11 12 12 14
6 4 3 4 5 6 6 6 6 7 9 10 13 12 13 13 11 10 10 11 11 12
9 7 4 3 3 4 4 4 4 5 6 8 10 10 11 11 11 12 11 11 12 11
11 8 6 3 2 1 1 1 2 3 3 4 6 7 9 8 8 8 8 9 10 11
13 9 6 3 3 2 1 1 1 2 1 1 3 5 6 9 8 8 8 8 9 8
14 11 7 4 3 2 2 2 2 3 4 2 2 2 3 6 7 7 9 10 10 8
13 10 6 4 4 4 4 3 3 4 4 3 3 4 3 4 5 6 6 8 10 10
Wind_Direction
28 24 22 15 13 10 5 359 358 2 358 348 349 345 337 331 318 318 316 306 280 276
26 29 26 23 22 20 18 10 8 11 15 16 13 8 354 346 345 338 337 333 334 325
18 20 23 22 22 17 14 14 10 8 10 17 21 20 19 9 4 3 9 11 13 6
360 4 1 8 12 11 6 4 2 2 5 8 14 22 20 16 13 13 13 21 24 20
336 355 4 9 10 7 5 7 8 10 10 8 12 21 24 25 24 23 21 18 23 22
335 356 8 11 10 9 8 12 15 18 19 20 19 21 29 38 40 40 42 36 37 31
276 319 355 3 2 1 5 7 16 22 22 23 26 23 29 38 47 53 59 58 52 47
241 278 324 346 356 359 2 11 14 22 34 38 34 29 29 41 48 51 56 59 59 56
229 248 288 329 345 352 359 9 20 33 41 47 43 32 32 32 41 46 48 47 46 42
214 221 232 269 322 343 360 15 36 50 51 53 48 35 37 38 46 47 43 32 22 17
213 217 224 246 295 331 15 71 82 79 68 62 50 30 34 30 42 42 35 26 20 16
208 212 220 248 273 271 265 230 223 199 162 67 56 45 20 16 22 19 18 10 5 3
206 206 202 228 268 260 267 269 260 234 215 216 227 36 13 357 9 6 2 360 358 352
200 203 203 207 223 235 243 244 233 216 212 226 245 242 327 342 344 348 352 347 345 350
Height
798 796 792 790 787 785 782 778 774 770 768 766 762 758 755 751 748 746 743 742 739 737
798 795 792 791 789 786 783 779 775 773 769 765 760 757 756 754 749 745 741 738 736 732
796 795 792 790 787 785 782 778 776 773 769 764 761 758 756 755 752 749 743 738 735 733
794 792 790 788 784 781 779 777 774 771 768 765 762 756 756 755 754 752 748 743 738 736
794 791 789 787 784 782 779 776 772 769 767 766 762 757 754 754 752 751 749 748 744 741
793 792 790 788 786 783 781 777 775 772 770 767 764 760 756 753 752 751 749 749 747 747
790 788 785 784 783 782 780 777 775 773 771 768 766 763 760 757 754 752 750 750 749 747
787 786 785 783 782 780 778 776 775 773 771 770 768 765 762 760 758 757 755 752 749 747
784 784 784 783 781 779 778 776 775 774 772 770 769 768 766 764 762 760 758 756 755 752
778 778 777 777 777 777 776 776 775 773 772 771 770 768 766 764 763 762 761 760 758 755
775 775 775 775 774 773 773 773 772 772 772 771 769 769 767 765 763 762 761 760 758 757
770 772 774 774 774 773 772 771 770 770 771 770 769 769 768 766 764 763 761 759 758 756
765 766 767 770 772 771 771 770 770 769 768 768 768 767 766 765 764 763 762 760 758 756
761 764 765 765 767 768 769 769 769 768 767 767 767 766 766 764 763 763 762 761 758 756